This is the latest recevied weather packets stored in our database for station/object OE-11399. If no packets are shown the sender has not sent any weather packets the latest 10 day(s).
| Time | Temp. | Humidity | Pressure | Rain* | Wind** | Luminosity | Snow |
|---|---|---|---|---|---|---|---|
| 1787812900 | 15.56° C | 89% | 854.9 hPa | 0 mm | - | 169 W/m² | - |
| 1787812527 | 15° C | 90% | 854.9 hPa | 0 mm | - | 147 W/m² | - |
| 1787811927 | 14.44° C | 90% | 855 hPa | 0 mm | - | 125 W/m² | - |
| 1787811339 | 14.44° C | 89% | 854.9 hPa | 0 mm | - | 88 W/m² | - |
| 1787810727 | 14.44° C | 90% | 854.9 hPa | 0 mm | - | 73 W/m² | - |
| 1787810127 | 13.89° C | 90% | 854.8 hPa | 0 mm | - | 59 W/m² | - |
| 1787809300 | 13.89° C | 90% | 854.8 hPa | 0 mm | - | 44 W/m² | - |
| 1787808927 | 13.89° C | 91% | 854.9 hPa | 0 mm | - | 44 W/m² | - |
| 1787808327 | 13.33° C | 91% | 854.8 hPa | 0 mm | - | 37 W/m² | - |
| 1787807500 | 13.33° C | 92% | 854.7 hPa | 0 mm | - | 29 W/m² | - |
| 1787807127 | 13.33° C | 93% | 854.7 hPa | 0 mm | - | 29 W/m² | - |
| 1787806527 | 13.33° C | 93% | 854.7 hPa | 0 mm | - | 15 W/m² | - |
| 1787805699 | 13.33° C | 92% | 854.7 hPa | 0 mm | - | 7 W/m² | - |
| 1787805327 | 13.33° C | 93% | 854.7 hPa | 0 mm | - | 0 W/m² | - |
| 1787804727 | 12.78° C | 94% | 854.6 hPa | 0 mm | - | 0 W/m² | - |
| 1787803900 | 12.78° C | 93% | 854.5 hPa | 0 mm | - | 0 W/m² | - |
| 1787803527 | 13.33° C | 93% | 854.5 hPa | 0 mm | - | 0 W/m² | - |
| 1787802927 | 13.33° C | 92% | 854.5 hPa | 0 mm | - | 0 W/m² | - |
| 1787802327 | 13.33° C | 92% | 854.4 hPa | 0 mm | - | 0 W/m² | - |
| 1787801727 | 13.33° C | 92% | 854.4 hPa | 0 mm | - | 0 W/m² | - |
| 1787801127 | 13.33° C | 92% | 854.4 hPa | 0 mm | - | 0 W/m² | - |
| 1787800300 | 13.33° C | 92% | 854.4 hPa | 0 mm | - | 0 W/m² | - |
| 1787799927 | 13.89° C | 91% | 854.6 hPa | 0 mm | - | 0 W/m² | - |
| 1787799327 | 13.89° C | 91% | 854.6 hPa | 0 mm | - | 0 W/m² | - |
| 1787798499 | 13.89° C | 91% | 854.6 hPa | 0 mm | - | 0 W/m² | - |
* Rain latest hour (hover to see other rain measurements)
** Current wind speed in m/s (hover to see current wind gust speed)